Location: Chilton Park
(37.7711°N, 100.0276°W)
Time: 00:46:48
(UTC+00:00)

Cosmos 1500 Rocket - Pass Details

Date: 29 June 2022
Orbit: 601 x 632 km, 82.5° (Epoch: 16 August)

Event Time Altitude Azimuth Distance (km) Brightness Sun altitude
Exits shadow 10:00:27 - 175° (S) 2,136 5.9 -13.5°
Reaches altitude 10° 10:00:50 10° 175° (S) 1,979 5.8 -13.4°
Maximum altitude 10:05:11 63° 94° (E) 701 4.0 -12.8°
Drops below altitude 10° 10:09:34 10° 14° (NNE) 2,011 7.1 -12.2°
Sets 10:11:50 0° 11° (NNE) 2,925 8.0 -11.8°
